Time,TemperatureF,DewpointF,PressureIn,WindDirection,WindDirectionDegrees,WindSpeedMPH,WindSpeedGustMPH,Humidity,HourlyPrecipIn,Conditions,Clouds,dailyrainin,SoftwareType,DateUTC
2013-10-23 00:12:00,53.0,45.0,28.09,ENE,70,0.0,3.0,74,0.00,,,0.00,,2013-10-23 07:12:00,
2013-10-23 00:22:00,51.0,45.0,28.10,SW,217,0.0,2.0,79,0.00,,,0.00,,2013-10-23 07:22:00,
2013-10-23 00:42:00,49.0,43.0,28.09,SW,236,0.0,1.0,81,0.00,,,0.00,,2013-10-23 07:42:00,
2013-10-23 00:52:00,49.0,44.0,28.11,NW,323,1.0,2.0,83,0.00,,,0.00,,2013-10-23 07:52:00,
2013-10-23 01:12:00,49.0,44.0,28.09,WNW,287,3.0,6.0,83,0.00,,,0.00,,2013-10-23 08:12:00,
2013-10-23 01:22:00,51.0,45.0,28.11,NNW,334,3.0,9.0,80,0.00,,,0.00,,2013-10-23 08:22:00,
2013-10-23 01:42:00,50.0,44.0,28.10,WSW,245,0.0,4.0,79,0.00,,,0.00,,2013-10-23 08:42:00,
2013-10-23 01:52:00,51.0,45.0,28.12,NW,314,4.0,8.0,80,0.00,,,0.00,,2013-10-23 08:52:00,
2013-10-23 02:12:00,51.0,45.0,28.11,NW,308,2.0,7.0,79,0.00,,,0.00,,2013-10-23 09:12:00,
2013-10-23 02:21:00,49.0,44.0,28.11,NW,323,2.0,4.0,82,0.00,,,0.00,,2013-10-23 09:21:00,
2013-10-23 02:43:00,48.0,43.0,28.11,WSW,256,0.0,1.0,84,0.00,,,0.00,,2013-10-23 09:43:00,
2013-10-23 02:53:00,47.0,43.0,28.11,WNW,287,1.0,5.0,85,0.00,,,0.00,,2013-10-23 09:53:00,
2013-10-23 03:12:00,47.0,43.0,28.12,WNW,290,0.0,2.0,85,0.00,,,0.00,,2013-10-23 10:12:00,
2013-10-23 03:23:00,46.0,42.0,28.12,NW,314,1.0,3.0,87,0.00,,,0.00,,2013-10-23 10:23:00,
2013-10-23 03:43:00,49.0,44.0,28.11,NNW,328,6.0,11.0,82,0.00,,,0.00,,2013-10-23 10:43:00,
2013-10-23 03:53:00,49.0,44.0,28.11,West,269,5.0,10.0,82,0.00,,,0.00,,2013-10-23 10:53:00,
2013-10-23 04:12:00,48.0,43.0,28.11,NW,309,5.0,9.0,83,0.00,,,0.00,,2013-10-23 11:12:00,
2013-10-23 04:22:00,48.0,43.0,28.11,West,280,2.0,5.0,84,0.00,,,0.00,,2013-10-23 11:22:00,
2013-10-23 04:42:00,46.0,42.0,28.11,West,281,0.0,1.0,85,0.00,,,0.00,,2013-10-23 11:42:00,
2013-10-23 04:52:00,47.0,43.0,28.11,NW,316,3.0,7.0,86,0.00,,,0.00,,2013-10-23 11:52:00,
2013-10-23 05:12:00,48.0,43.0,28.11,NW,317,6.0,11.0,83,0.00,,,0.00,,2013-10-23 12:12:00,
2013-10-23 05:22:00,47.0,42.0,28.11,NW,318,5.0,11.0,84,0.00,,,0.00,,2013-10-23 12:22:00,
2013-10-23 05:42:00,47.0,43.0,28.12,NW,310,0.0,4.0,85,0.00,,,0.00,,2013-10-23 12:42:00,
2013-10-23 05:52:00,48.0,43.0,28.12,North,359,4.0,9.0,83,0.00,,,0.00,,2013-10-23 12:52:00,
2013-10-23 06:12:00,47.0,43.0,28.12,NE,53,1.0,4.0,85,0.00,,,0.00,,2013-10-23 13:12:00,
2013-10-23 06:21:00,46.0,42.0,28.12,WNW,285,3.0,6.0,86,0.00,,,0.00,,2013-10-23 13:21:00,
2013-10-23 06:42:00,47.0,42.0,28.12,NW,314,2.0,10.0,84,0.00,,,0.00,,2013-10-23 13:42:00,
2013-10-23 06:52:00,45.0,41.0,28.14,WSW,244,0.0,2.0,87,0.00,,,0.00,,2013-10-23 13:52:00,
2013-10-23 07:11:00,45.0,42.0,28.12,NW,315,4.0,6.0,88,0.00,,,0.00,,2013-10-23 14:11:00,
2013-10-23 07:21:00,44.0,41.0,28.14,SW,231,1.0,4.0,89,0.00,,,0.00,,2013-10-23 14:21:00,
2013-10-23 07:42:00,43.0,40.0,28.13,WNW,301,1.0,4.0,89,0.00,,,0.00,,2013-10-23 14:42:00,
2013-10-23 07:52:00,44.0,41.0,28.15,NNW,338,0.0,2.0,90,0.00,,,0.00,,2013-10-23 14:52:00,
2013-10-23 08:11:00,42.0,40.0,28.14,WNW,288,0.0,1.0,91,0.00,,,0.00,,2013-10-23 15:11:00,
2013-10-23 08:22:00,44.0,42.0,28.15,ESE,110,1.0,3.0,92,0.00,,,0.00,,2013-10-23 15:22:00,
2013-10-23 08:43:00,44.0,41.0,28.14,SW,216,0.0,3.0,90,0.00,,,0.00,,2013-10-23 15:43:00,
2013-10-23 08:53:00,44.0,41.0,28.16,NNE,30,0.0,1.0,89,0.00,,,0.00,,2013-10-23 15:53:00,
2013-10-23 09:12:00,44.0,42.0,28.15,ENE,75,0.0,2.0,91,0.00,,,0.00,,2013-10-23 16:12:00,
2013-10-23 09:23:00,46.0,42.0,28.16,North,5,0.0,3.0,87,0.00,,,0.00,,2013-10-23 16:23:00,
2013-10-23 09:42:00,45.0,41.0,28.15,NW,306,1.0,3.0,87,0.00,,,0.00,,2013-10-23 16:42:00,
2013-10-23 09:53:00,47.0,43.0,28.17,NW,326,2.0,4.0,86,0.00,,,0.00,,2013-10-23 16:53:00,
2013-10-23 10:12:00,47.0,42.0,28.15,NW,314,3.0,5.0,84,0.00,,,0.00,,2013-10-23 17:12:00,
2013-10-23 10:22:00,48.0,43.0,28.16,NW,319,3.0,7.0,83,0.00,,,0.00,,2013-10-23 17:22:00,
2013-10-23 10:44:00,48.0,43.0,28.15,WNW,300,4.0,7.0,82,0.00,,,0.00,,2013-10-23 17:44:00,
2013-10-23 10:52:00,50.0,44.0,28.17,NNE,13,2.0,4.0,80,0.00,,,0.00,,2013-10-23 17:52:00,
2013-10-23 11:12:00,51.0,44.0,28.15,NNE,30,0.0,2.0,78,0.00,,,0.00,,2013-10-23 18:12:00,
2013-10-23 11:22:00,53.0,46.0,28.16,NNE,30,0.0,1.0,76,0.00,,,0.00,,2013-10-23 18:22:00,
2013-10-23 11:41:00,53.0,45.0,28.15,NE,53,0.0,2.0,74,0.00,,,0.00,,2013-10-23 18:41:00,
2013-10-23 11:51:00,54.0,46.0,28.16,NNE,13,1.0,3.0,73,0.00,,,0.00,,2013-10-23 18:51:00,
2013-10-23 12:11:00,55.0,47.0,28.14,NE,40,0.0,1.0,73,0.00,,,0.00,,2013-10-23 19:11:00,
2013-10-23 12:21:00,57.0,48.0,28.15,East,100,0.0,1.0,72,0.00,,,0.00,,2013-10-23 19:21:00,
2013-10-23 12:42:00,57.0,47.0,28.14,SSE,162,0.0,2.0,68,0.00,,,0.00,,2013-10-23 19:42:00,
2013-10-23 12:53:00,58.0,47.0,28.15,ENE,73,1.0,2.0,68,0.00,,,0.00,,2013-10-23 19:53:00,
2013-10-23 13:11:00,58.0,47.0,28.13,NNW,329,0.0,2.0,67,0.00,,,0.00,,2013-10-23 20:11:00,
2013-10-23 13:22:00,60.0,49.0,28.14,East,100,0.0,4.0,66,0.00,,,0.00,,2013-10-23 20:22:00,
2013-10-23 13:42:00,60.0,48.0,28.11,ESE,111,0.0,2.0,65,0.00,,,0.00,,2013-10-23 20:42:00,
2013-10-23 13:52:00,62.0,48.0,28.12,SE,127,0.0,2.0,61,0.00,,,0.00,,2013-10-23 20:52:00,
2013-10-23 14:11:00,62.0,48.0,28.10,ENE,60,0.0,1.0,61,0.00,,,0.00,,2013-10-23 21:11:00,
2013-10-23 14:21:00,62.0,48.0,28.09,SE,129,0.0,3.0,61,0.00,,,0.00,,2013-10-23 21:21:00,
2013-10-23 14:43:00,62.0,47.0,28.09,East,82,0.0,3.0,58,0.00,,,0.00,,2013-10-23 21:43:00,
2013-10-23 14:54:00,63.0,48.0,28.08,ESE,110,0.0,3.0,59,0.00,,,0.00,,2013-10-23 21:54:00,
2013-10-23 15:13:00,63.0,48.0,28.08,East,84,0.0,1.0,58,0.00,,,0.00,,2013-10-23 22:13:00,
2013-10-23 15:23:00,64.0,48.0,28.07,ESE,113,0.0,1.0,57,0.00,,,0.00,,2013-10-23 22:23:00,
2013-10-23 15:43:00,64.0,48.0,28.07,ENE,68,0.0,1.0,56,0.00,,,0.00,,2013-10-23 22:43:00,
2013-10-23 15:54:00,65.0,48.0,28.07,SE,132,0.0,1.0,55,0.00,,,0.00,,2013-10-23 22:54:00,
2013-10-23 16:12:00,65.0,47.0,28.06,SE,124,0.0,1.0,53,0.00,,,0.00,,2013-10-23 23:12:00,
2013-10-23 16:22:00,66.0,48.0,28.06,SE,126,0.0,1.0,52,0.00,,,0.00,,2013-10-23 23:22:00,
2013-10-23 16:42:00,66.0,48.0,28.06,ESE,117,0.0,1.0,52,0.00,,,0.00,,2013-10-23 23:42:00,
2013-10-23 16:52:00,66.0,47.0,28.05,ESE,117,0.0,1.0,51,0.00,,,0.00,,2013-10-23 23:52:00,
2013-10-23 17:12:00,66.0,47.0,28.05,ESE,117,0.0,0.0,51,0.00,,,0.00,,2013-10-24 00:12:00,
2013-10-23 17:21:00,67.0,49.0,28.04,ESE,123,0.0,0.0,52,0.00,,,0.00,,2013-10-24 00:21:00,
2013-10-23 17:42:00,64.0,47.0,28.04,ESE,123,0.0,1.0,55,0.00,,,0.00,,2013-10-24 00:42:00,
2013-10-23 17:52:00,61.0,47.0,28.04,ESE,123,0.0,0.0,60,0.00,,,0.00,,2013-10-24 00:52:00,
2013-10-23 18:11:00,59.0,46.0,28.04,ESE,123,0.0,1.0,63,0.00,,,0.00,,2013-10-24 01:11:00,
2013-10-23 18:21:00,59.0,47.0,28.04,ESE,122,0.0,1.0,64,0.00,,,0.00,,2013-10-24 01:21:00,
2013-10-23 18:42:00,58.0,46.0,28.04,ESE,122,0.0,1.0,65,0.00,,,0.00,,2013-10-24 01:42:00,
2013-10-23 18:52:00,57.0,46.0,28.04,ESE,123,0.0,1.0,66,0.00,,,0.00,,2013-10-24 01:52:00,
2013-10-23 19:12:00,57.0,46.0,28.05,ESE,123,0.0,0.0,66,0.00,,,0.00,,2013-10-24 02:12:00,
2013-10-23 19:22:00,56.0,45.0,28.05,SSW,197,0.0,1.0,67,0.00,,,0.00,,2013-10-24 02:22:00,
2013-10-23 20:12:00,55.0,45.0,28.06,SW,225,0.0,3.0,70,0.00,,,0.00,,2013-10-24 03:12:00,
2013-10-23 20:22:00,56.0,46.0,28.06,West,260,0.0,4.0,68,0.00,,,0.00,,2013-10-24 03:22:00,
2013-10-23 20:44:00,55.0,45.0,28.06,SW,215,0.0,1.0,69,0.00,,,0.00,,2013-10-24 03:44:00,
2013-10-23 20:54:00,54.0,45.0,28.06,SW,222,0.0,2.0,71,0.00,,,0.00,,2013-10-24 03:54:00,
2013-10-23 21:14:00,54.0,45.0,28.07,SW,221,0.0,1.0,72,0.00,,,0.00,,2013-10-24 04:14:00,
2013-10-23 21:24:00,54.0,46.0,28.07,NW,316,2.0,6.0,73,0.00,,,0.00,,2013-10-24 04:24:00,
2013-10-23 21:44:00,54.0,45.0,28.07,West,270,0.0,2.0,71,0.00,,,0.00,,2013-10-24 04:44:00,
2013-10-23 21:54:00,55.0,46.0,28.07,WNW,283,3.0,11.0,72,0.00,,,0.00,,2013-10-24 04:54:00,
2013-10-23 22:13:00,54.0,45.0,28.07,NW,316,4.0,7.0,72,0.00,,,0.00,,2013-10-24 05:13:00,
2013-10-23 22:22:00,54.0,46.0,28.07,NNW,342,5.0,9.0,73,0.00,,,0.00,,2013-10-24 05:22:00,
2013-10-23 22:42:00,54.0,45.0,28.08,WSW,245,1.0,8.0,72,0.00,,,0.00,,2013-10-24 05:42:00,
2013-10-23 22:53:00,53.0,45.0,28.08,NW,325,0.0,3.0,75,0.00,,,0.00,,2013-10-24 05:53:00,
2013-10-23 23:11:00,52.0,45.0,28.08,NW,325,2.0,5.0,76,0.00,,,0.00,,2013-10-24 06:11:00,
2013-10-23 23:21:00,52.0,45.0,28.08,NNW,327,1.0,4.0,77,0.00,,,0.00,,2013-10-24 06:21:00,
2013-10-23 23:42:00,52.0,45.0,28.08,NW,314,1.0,5.0,77,0.00,,,0.00,,2013-10-24 06:42:00,
2013-10-23 23:52:00,51.0,44.0,28.09,WNW,302,1.0,4.0,78,0.00,,,0.00,,2013-10-24 06:52:00,